FW9658 Weather Reports


time (UTC)temp
F
wind
direction
speed
knots
gust
knots
rain 1hr
in
rain 24hr
in
rain mn
in
humidity
%
barometer
mb
20260506211535 76 205 1.7 5.2 0.00 0.11 0.11 84 1015.1
20260506210035 76 238 0.9 3.5 0.00 0.11 0.11 84 1015.3
20260506204532 77 217 0.9 4.3 0.00 0.11 0.11 84 1015.3
20260506203033 77 205 2.6 6.1 0.00 0.11 0.11 83 1015.4
20260506201535 77 219 1.7 7.0 0.00 0.11 0.11 83 1015.6
20260506200034 77 200 1.7 4.3 0.00 0.11 0.11 82 1015.8
20260506194535 77 131 0.9 4.3 0.00 0.11 0.11 82 1015.7
20260506193033 77 202 1.7 5.2 0.00 0.11 0.11 82 1016.0
20260506191540 77 196 0.9 5.2 0.00 0.11 0.11 82 1016.2
20260506190035 78 205 1.7 8.7 0.00 0.11 0.11 80 1016.3
20260506184546 79 198 1.7 5.2 0.00 0.11 0.11 80 1016.4
20260506183050 79 211 0.9 7.0 0.00 0.11 0.11 79 1016.4
20260506181558 79 220 1.7 7.0 0.00 0.11 0.11 78 1016.5
20260506180037 79 170 0.9 4.3 0.00 0.11 0.11 79 1016.6
20260506174533 79 198 0.9 4.3 0.00 0.11 0.11 79 1016.8
20260506173053 78 202 0.9 3.5 0.00 0.11 0.11 80 1017.1
20260506171534 78 203 0.9 4.3 0.00 0.11 0.11 80 1017.5
20260506170039 77 213 0.9 3.5 0.00 0.11 0.11 81 1017.4
20260506164538 78 200 0.0 2.6 0.00 0.11 0.11 80 1017.6
20260506163038 77 200 0.9 4.3 0.00 0.11 0.11 79 1017.6
20260506161535 77 194 0.9 4.3 0.00 0.11 0.11 79 1017.8
20260506160034 77 202 1.7 4.3 0.00 0.11 0.11 78 1017.7
20260506154542 79 198 0.9 3.5 0.00 0.11 0.11 75 1017.9
20260506153050 78 0 0.0 3.5 0.00 0.11 0.11 77 1017.8
20260506151541 77 208 0.0 2.6 0.00 0.11 0.11 79 1018.2
20260506150035 77 198 0.0 3.5 0.00 0.11 0.11 78 1018.1
20260506144544 77 201 0.9 3.5 0.00 0.11 0.11 77 1017.8
20260506143040 77 212 0.9 4.3 0.00 0.11 0.11 77 1017.5
20260506141535 77 202 0.9 5.2 0.00 0.11 0.11 80 1017.6
20260506140035 76 201 1.7 4.3 0.00 0.11 0.11 81 1017.5
20260506134536 75 0 0.0 2.6 0.00 0.11 0.11 85 1017.2
20260506133034 75 214 0.9 3.5 0.00 0.11 0.11 84 1017.2
20260506131539 75 211 0.9 2.6 0.00 0.11 0.11 85 1016.8
20260506130036 75 223 0.0 3.5 0.00 0.11 0.11 85 1017.2
20260506124535 75 0 0.0 2.6 0.00 0.11 0.11 86 1017.2
20260506123035 74 0 0.9 2.6 0.00 0.11 0.11 87 1016.8
20260506121531 73 191 0.9 3.5 0.00 0.11 0.11 88 1016.9
20260506120041 72 0 0.0 1.7 0.00 0.11 0.11 89 1016.7
20260506114536 71 0 0.0 1.7 0.00 0.11 0.11 90 1016.5
20260506113040 70 0 0.0 1.7 0.00 0.11 0.11 91 1016.3
20260506111533 69 0 0.0 0.0 0.00 0.11 0.11 91 1016.4
20260506110040 68 0 0.0 0.0 0.00 0.11 0.11 90 1016.3
20260506104536 68 0 0.0 0.0 0.00 0.11 0.11 90 1016.3
20260506103037 69 0 0.0 0.0 0.00 0.11 0.11 89 1016.3
20260506101533 69 0 0.0 0.0 0.00 0.11 0.11 89 1016.0
20260506100037 69 0 0.0 0.0 0.00 0.11 0.11 88 1016.3
20260506094538 69 0 0.0 0.0 0.00 0.11 0.11 88 1016.0
20260506093035 70 0 0.0 0.9 0.00 0.11 0.11 88 1016.0
20260506091536 70 0 0.0 0.0 0.00 0.11 0.11 87 1016.1
20260506090035 70 0 0.0 0.0 0.00 0.11 0.11 86 1015.9
20260506084531 70 0 0.0 0.0 0.00 0.11 0.11 86 1015.8
20260506083036 70 0 0.0 0.9 0.00 0.11 0.11 85 1016.0
20260506081536 70 0 0.0 2.6 0.00 0.11 0.11 85 1015.9
20260506073035 70 0 0.0 2.6 0.00 0.11 0.11 85 1015.9
20260506071536 70 179 0.0 1.7 0.00 0.11 0.11 85 1015.9
20260506061535 69 0 0.0 0.0 0.00 0.11 0.11 84 1016.7
20260506044538 69 58 0.0 1.7 0.10 0.24 0.10 79 1016.8
20260506043035 70 0 0.0 1.7 0.03 0.17 0.03 77 1016.8
20260506041536 70 0 0.0 2.6 0.00 0.14 0.00 75 1017.0
20260506040035 70 202 0.0 3.5 0.00 0.14 0.00 76 1017.1
20260506034540 70 203 0.9 4.3 0.00 0.14 0.14 76 1017.1
20260506033036 70 173 0.9 2.6 0.00 0.14 0.14 75 1017.1
20260506031537 70 0 0.0 2.6 0.00 0.14 0.14 75 1017.1
20260506030040 70 0 0.0 0.9 0.00 0.14 0.14 76 1017.2
20260506024556 70 199 0.0 3.5 0.00 0.14 0.14 77 1017.2
20260506023033 70 115 0.9 3.5 0.00 0.14 0.14 77 1017.0
20260506021536 70 115 0.0 2.6 0.00 0.14 0.14 77 1017.0
20260506020035 70 0 0.0 4.3 0.00 0.14 0.14 77 1017.1
20260506014536 69 0 0.0 4.3 0.00 0.14 0.14 76 1017.2
20260506013042 70 0 0.0 1.7 0.00 0.14 0.14 75 1017.2
20260506011533 70 0 0.0 5.2 0.00 0.14 0.14 74 1017.2
20260506010037 70 0 0.0 4.3 0.00 0.14 0.14 74 1017.0
20260506004535 70 0 0.0 6.1 0.00 0.14 0.14 74 1016.7
20260506003036 70 118 1.7 6.1 0.00 0.14 0.14 74 1016.6
20260506001538 70 0 0.0 3.5 0.00 0.14 0.14 72 1016.7
20260506000035 70 136 0.9 5.2 0.00 0.14 0.14 71 1016.8
20260505234541 71 105 0.0 4.3 0.00 0.14 0.14 70 1016.9
20260505233035 71 91 0.9 4.3 0.00 0.14 0.14 70 1017.0
20260505231538 72 111 0.0 1.7 0.00 0.14 0.14 70 1016.8
20260505230050 72 204 0.9 2.6 0.00 0.14 0.14 69 1016.8
20260505224535 72 152 0.9 6.1 0.00 0.14 0.14 69 1016.7
20260505223047 72 133 1.7 5.2 0.00 0.14 0.14 70 1016.8
20260505221537 73 199 0.9 6.1 0.00 0.14 0.14 70 1016.7
20260505220041 73 172 0.9 6.1 0.00 0.14 0.14 70 1016.8
20260505214532 73 115 1.7 5.2 0.00 0.14 0.14 68 1016.8
20260505213048 74 152 1.7 6.1 0.00 0.14 0.14 67 1016.8